Time,TemperatureF,DewpointF,PressureIn,WindDirection,WindDirectionDegrees,WindSpeedMPH,WindSpeedGustMPH,Humidity,HourlyPrecipIn,Conditions,Clouds,dailyrainin,SoftwareType,DateUTC
2013-09-21 00:00:00,57.0,-99.9,29.70,South,180,5.0,6.0,-999,-99.99,,,-99.99,,2013-09-21 07:00:00,
2013-09-21 00:22:00,57.0,-99.9,29.70,South,180,5.0,6.0,-999,-99.99,,,-99.99,,2013-09-21 07:22:00,
2013-09-21 00:32:00,57.0,-99.9,29.70,South,180,5.0,6.0,-999,-99.99,,,-99.99,,2013-09-21 07:32:00,
2013-09-21 00:42:00,57.0,-99.9,29.70,South,180,5.0,6.0,-999,-99.99,,,-99.99,,2013-09-21 07:42:00,
2013-09-21 00:52:00,57.0,-99.9,29.70,South,180,5.0,6.0,-999,-99.99,,,-99.99,,2013-09-21 07:52:00,
2013-09-21 01:00:00,58.0,-99.9,29.70,SSE,160,5.0,6.0,-999,-99.99,,,-99.99,,2013-09-21 08:00:00,
2013-09-21 01:22:00,58.0,-99.9,29.70,SSE,160,5.0,6.0,-999,-99.99,,,-99.99,,2013-09-21 08:22:00,
2013-09-21 01:32:00,58.0,-99.9,29.70,SSE,160,5.0,6.0,-999,-99.99,,,-99.99,,2013-09-21 08:32:00,
2013-09-21 01:42:00,58.0,-99.9,29.70,SSE,160,5.0,6.0,-999,-99.99,,,-99.99,,2013-09-21 08:42:00,
2013-09-21 01:52:00,58.0,-99.9,29.70,SSE,160,5.0,6.0,-999,-99.99,,,-99.99,,2013-09-21 08:52:00,
2013-09-21 02:00:00,58.0,-99.9,29.70,SSW,200,1.0,2.0,-999,-99.99,,,-99.99,,2013-09-21 09:00:00,
2013-09-21 02:22:00,58.0,-99.9,29.70,SSW,200,1.0,2.0,-999,-99.99,,,-99.99,,2013-09-21 09:22:00,
2013-09-21 02:33:00,58.0,-99.9,29.70,SSW,200,1.0,2.0,-999,-99.99,,,-99.99,,2013-09-21 09:33:00,
2013-09-21 02:43:00,58.0,-99.9,29.70,SSW,200,1.0,2.0,-999,-99.99,,,-99.99,,2013-09-21 09:43:00,
2013-09-21 02:54:00,58.0,-99.9,29.70,SSW,200,1.0,2.0,-999,-99.99,,,-99.99,,2013-09-21 09:54:00,
2013-09-21 03:00:00,57.0,-99.9,29.70,South,180,6.0,7.0,-999,-99.99,,,-99.99,,2013-09-21 10:00:00,
2013-09-21 03:23:00,57.0,-99.9,29.70,South,180,6.0,7.0,-999,-99.99,,,-99.99,,2013-09-21 10:23:00,
2013-09-21 03:33:00,57.0,-99.9,29.70,South,180,6.0,7.0,-999,-99.99,,,-99.99,,2013-09-21 10:33:00,
2013-09-21 03:42:00,57.0,-99.9,29.70,South,180,6.0,7.0,-999,-99.99,,,-99.99,,2013-09-21 10:42:00,
2013-09-21 03:53:00,57.0,-99.9,29.70,South,180,6.0,7.0,-999,-99.99,,,-99.99,,2013-09-21 10:53:00,
2013-09-21 04:00:00,55.0,-99.9,29.70,East,80,2.0,2.0,-999,-99.99,,,-99.99,,2013-09-21 11:00:00,
2013-09-21 04:23:00,55.0,-99.9,29.70,East,80,2.0,2.0,-999,-99.99,,,-99.99,,2013-09-21 11:23:00,
2013-09-21 04:33:00,55.0,-99.9,29.70,East,80,2.0,2.0,-999,-99.99,,,-99.99,,2013-09-21 11:33:00,
2013-09-21 04:42:00,55.0,-99.9,29.70,East,80,2.0,2.0,-999,-99.99,,,-99.99,,2013-09-21 11:42:00,
2013-09-21 04:52:00,55.0,-99.9,29.70,East,80,2.0,2.0,-999,-99.99,,,-99.99,,2013-09-21 11:52:00,
2013-09-21 05:00:00,55.0,-99.9,29.68,East,90,5.0,6.0,-999,-99.99,,,-99.99,,2013-09-21 12:00:00,
2013-09-21 05:22:00,55.0,-99.9,29.68,East,90,5.0,6.0,-999,-99.99,,,-99.99,,2013-09-21 12:22:00,
2013-09-21 05:32:00,55.0,-99.9,29.68,East,90,5.0,6.0,-999,-99.99,,,-99.99,,2013-09-21 12:32:00,
2013-09-21 05:42:00,55.0,-99.9,29.68,East,90,5.0,6.0,-999,-99.99,,,-99.99,,2013-09-21 12:42:00,
2013-09-21 05:52:00,55.0,-99.9,29.68,East,90,5.0,6.0,-999,-99.99,,,-99.99,,2013-09-21 12:52:00,
2013-09-21 06:00:00,55.0,-99.9,29.69,SE,130,3.0,5.0,-999,-99.99,,,-99.99,,2013-09-21 13:00:00,
2013-09-21 06:22:00,55.0,-99.9,29.69,SE,130,3.0,5.0,-999,-99.99,,,-99.99,,2013-09-21 13:22:00,
2013-09-21 06:32:00,55.0,-99.9,29.69,SE,130,3.0,5.0,-999,-99.99,,,-99.99,,2013-09-21 13:32:00,
2013-09-21 06:42:00,55.0,-99.9,29.69,SE,130,3.0,5.0,-999,-99.99,,,-99.99,,2013-09-21 13:42:00,
2013-09-21 06:53:00,55.0,-99.9,29.69,SE,130,3.0,5.0,-999,-99.99,,,-99.99,,2013-09-21 13:53:00,
2013-09-21 07:00:00,55.0,-99.9,29.70,SE,140,2.0,2.0,-999,-99.99,,,-99.99,,2013-09-21 14:00:00,
2013-09-21 07:22:00,55.0,-99.9,29.70,SE,140,2.0,2.0,-999,-99.99,,,-99.99,,2013-09-21 14:22:00,
2013-09-21 07:32:00,55.0,-99.9,29.70,SE,140,2.0,2.0,-999,-99.99,,,-99.99,,2013-09-21 14:32:00,
2013-09-21 07:42:00,55.0,-99.9,29.70,SE,140,2.0,2.0,-999,-99.99,,,-99.99,,2013-09-21 14:42:00,
2013-09-21 07:52:00,55.0,-99.9,29.70,SE,140,2.0,2.0,-999,-99.99,,,-99.99,,2013-09-21 14:52:00,
2013-09-21 08:00:00,55.0,-99.9,29.70,East,80,2.0,3.0,-999,-99.99,,,-99.99,,2013-09-21 15:00:00,
2013-09-21 08:22:00,55.0,-99.9,29.70,East,80,2.0,3.0,-999,-99.99,,,-99.99,,2013-09-21 15:22:00,
2013-09-21 08:34:00,55.0,-99.9,29.70,East,80,2.0,3.0,-999,-99.99,,,-99.99,,2013-09-21 15:34:00,
2013-09-21 08:45:00,55.0,-99.9,29.70,East,80,2.0,3.0,-999,-99.99,,,-99.99,,2013-09-21 15:45:00,
2013-09-21 08:55:00,55.0,-99.9,29.70,East,80,2.0,3.0,-999,-99.99,,,-99.99,,2013-09-21 15:55:00,
2013-09-21 09:00:00,56.0,-99.9,29.70,ENE,60,2.0,2.0,-999,-99.99,,,-99.99,,2013-09-21 16:00:00,
2013-09-21 09:24:00,56.0,-99.9,29.70,ENE,60,2.0,2.0,-999,-99.99,,,-99.99,,2013-09-21 16:24:00,
2013-09-21 09:34:00,56.0,-99.9,29.70,ENE,60,2.0,2.0,-999,-99.99,,,-99.99,,2013-09-21 16:34:00,
2013-09-21 09:43:00,56.0,-99.9,29.70,ENE,60,2.0,2.0,-999,-99.99,,,-99.99,,2013-09-21 16:43:00,
2013-09-21 09:54:00,56.0,-99.9,29.70,ENE,60,2.0,2.0,-999,-99.99,,,-99.99,,2013-09-21 16:54:00,
2013-09-21 10:00:00,58.0,-99.9,29.72,South,190,2.0,2.0,-999,-99.99,,,-99.99,,2013-09-21 17:00:00,
2013-09-21 10:23:00,58.0,-99.9,29.72,South,190,2.0,2.0,-999,-99.99,,,-99.99,,2013-09-21 17:23:00,
2013-09-21 10:34:00,58.0,-99.9,29.72,South,190,2.0,2.0,-999,-99.99,,,-99.99,,2013-09-21 17:34:00,
2013-09-21 10:43:00,58.0,-99.9,29.72,South,190,2.0,2.0,-999,-99.99,,,-99.99,,2013-09-21 17:43:00,
2013-09-21 10:53:00,58.0,-99.9,29.72,South,190,2.0,2.0,-999,-99.99,,,-99.99,,2013-09-21 17:53:00,
2013-09-21 11:00:00,59.0,-99.9,29.73,SW,220,3.0,6.0,-999,-99.99,,,-99.99,,2013-09-21 18:00:00,
2013-09-21 11:22:00,59.0,-99.9,29.73,SW,220,3.0,6.0,-999,-99.99,,,-99.99,,2013-09-21 18:22:00,
2013-09-21 11:33:00,59.0,-99.9,29.73,SW,220,3.0,6.0,-999,-99.99,,,-99.99,,2013-09-21 18:33:00,
2013-09-21 11:42:00,59.0,-99.9,29.73,SW,220,3.0,6.0,-999,-99.99,,,-99.99,,2013-09-21 18:42:00,
2013-09-21 11:52:00,59.0,-99.9,29.73,SW,220,3.0,6.0,-999,-99.99,,,-99.99,,2013-09-21 18:52:00,
2013-09-21 12:00:00,59.0,-99.9,29.75,SW,220,13.0,15.0,-999,-99.99,,,-99.99,,2013-09-21 19:00:00,
2013-09-21 12:22:00,59.0,-99.9,29.75,SW,220,13.0,15.0,-999,-99.99,,,-99.99,,2013-09-21 19:22:00,
2013-09-21 12:32:00,59.0,-99.9,29.75,SW,220,13.0,15.0,-999,-99.99,,,-99.99,,2013-09-21 19:32:00,
2013-09-21 12:42:00,59.0,-99.9,29.75,SW,220,13.0,15.0,-999,-99.99,,,-99.99,,2013-09-21 19:42:00,
2013-09-21 12:52:00,59.0,-99.9,29.75,SW,220,13.0,15.0,-999,-99.99,,,-99.99,,2013-09-21 19:52:00,
2013-09-21 13:00:00,60.0,-99.9,29.75,SSW,210,7.0,9.0,-999,-99.99,,,-99.99,,2013-09-21 20:00:00,
2013-09-21 13:22:00,60.0,-99.9,29.75,SSW,210,7.0,9.0,-999,-99.99,,,-99.99,,2013-09-21 20:22:00,
2013-09-21 13:32:00,60.0,-99.9,29.75,SSW,210,7.0,9.0,-999,-99.99,,,-99.99,,2013-09-21 20:32:00,
2013-09-21 13:43:00,60.0,-99.9,29.75,SSW,210,7.0,9.0,-999,-99.99,,,-99.99,,2013-09-21 20:43:00,
2013-09-21 13:52:00,60.0,-99.9,29.75,SSW,210,7.0,9.0,-999,-99.99,,,-99.99,,2013-09-21 20:52:00,
2013-09-21 14:00:00,62.0,-99.9,29.76,SSW,200,11.0,13.0,-999,-99.99,,,-99.99,,2013-09-21 21:00:00,
2013-09-21 14:22:00,62.0,-99.9,29.76,SSW,200,11.0,13.0,-999,-99.99,,,-99.99,,2013-09-21 21:22:00,
2013-09-21 14:34:00,62.0,-99.9,29.76,SSW,200,11.0,13.0,-999,-99.99,,,-99.99,,2013-09-21 21:34:00,
2013-09-21 14:45:00,62.0,-99.9,29.76,SSW,200,11.0,13.0,-999,-99.99,,,-99.99,,2013-09-21 21:45:00,
2013-09-21 14:54:00,62.0,-99.9,29.76,SSW,200,11.0,13.0,-999,-99.99,,,-99.99,,2013-09-21 21:54:00,
2013-09-21 15:00:00,62.0,-99.9,29.76,SSW,210,11.0,14.0,-999,-99.99,,,-99.99,,2013-09-21 22:00:00,
2013-09-21 15:24:00,62.0,-99.9,29.76,SSW,210,11.0,14.0,-999,-99.99,,,-99.99,,2013-09-21 22:24:00,
2013-09-21 15:33:00,62.0,-99.9,29.76,SSW,210,11.0,14.0,-999,-99.99,,,-99.99,,2013-09-21 22:33:00,
2013-09-21 15:43:00,62.0,-99.9,29.76,SSW,210,11.0,14.0,-999,-99.99,,,-99.99,,2013-09-21 22:43:00,
2013-09-21 15:53:00,62.0,-99.9,29.76,SSW,210,11.0,14.0,-999,-99.99,,,-99.99,,2013-09-21 22:53:00,
2013-09-21 16:00:00,61.0,-99.9,29.76,South,190,11.0,14.0,-999,-99.99,,,-99.99,,2013-09-21 23:00:00,
2013-09-21 16:23:00,61.0,-99.9,29.76,South,190,11.0,14.0,-999,-99.99,,,-99.99,,2013-09-21 23:23:00,
2013-09-21 16:34:00,61.0,-99.9,29.76,South,190,11.0,14.0,-999,-99.99,,,-99.99,,2013-09-21 23:34:00,
2013-09-21 16:42:00,61.0,-99.9,29.76,South,190,11.0,14.0,-999,-99.99,,,-99.99,,2013-09-21 23:42:00,
2013-09-21 16:53:00,61.0,-99.9,29.76,South,190,11.0,14.0,-999,-99.99,,,-99.99,,2013-09-21 23:53:00,
2013-09-21 17:00:00,61.0,-99.9,29.77,South,190,11.0,14.0,-999,-99.99,,,-99.99,,2013-09-22 00:00:00,
2013-09-21 17:23:00,61.0,-99.9,29.77,South,190,11.0,14.0,-999,-99.99,,,-99.99,,2013-09-22 00:23:00,
2013-09-21 17:32:00,61.0,-99.9,29.77,South,190,11.0,14.0,-999,-99.99,,,-99.99,,2013-09-22 00:32:00,
2013-09-21 17:43:00,61.0,-99.9,29.77,South,190,11.0,14.0,-999,-99.99,,,-99.99,,2013-09-22 00:43:00,
2013-09-21 17:52:00,61.0,-99.9,29.77,South,190,11.0,14.0,-999,-99.99,,,-99.99,,2013-09-22 00:52:00,
2013-09-21 18:00:00,60.0,-99.9,29.78,SSW,200,11.0,13.0,-999,-99.99,,,-99.99,,2013-09-22 01:00:00,
2013-09-21 18:22:00,60.0,-99.9,29.78,SSW,200,11.0,13.0,-999,-99.99,,,-99.99,,2013-09-22 01:22:00,
2013-09-21 18:32:00,60.0,-99.9,29.78,SSW,200,11.0,13.0,-999,-99.99,,,-99.99,,2013-09-22 01:32:00,
2013-09-21 18:42:00,60.0,-99.9,29.78,SSW,200,11.0,13.0,-999,-99.99,,,-99.99,,2013-09-22 01:42:00,
2013-09-21 18:52:00,60.0,-99.9,29.78,SSW,200,11.0,13.0,-999,-99.99,,,-99.99,,2013-09-22 01:52:00,
2013-09-21 19:00:00,59.0,-99.9,29.78,South,190,10.0,11.0,-999,-99.99,,,-99.99,,2013-09-22 02:00:00,
2013-09-21 19:22:00,59.0,-99.9,29.78,South,190,10.0,11.0,-999,-99.99,,,-99.99,,2013-09-22 02:22:00,
2013-09-21 19:32:00,59.0,-99.9,29.78,South,190,10.0,11.0,-999,-99.99,,,-99.99,,2013-09-22 02:32:00,
2013-09-21 19:42:00,59.0,-99.9,29.78,South,190,10.0,11.0,-999,-99.99,,,-99.99,,2013-09-22 02:42:00,
2013-09-21 19:52:00,59.0,-99.9,29.78,South,190,10.0,11.0,-999,-99.99,,,-99.99,,2013-09-22 02:52:00,
2013-09-21 20:00:00,-999.0,-99.9,29.77,South,180,9.0,10.0,-999,-99.99,,,-99.99,,2013-09-22 03:00:00,
2013-09-21 20:22:00,58.0,-99.9,29.79,South,180,9.0,10.0,-999,-99.99,,,-99.99,,2013-09-22 03:22:00,
2013-09-21 20:34:00,58.0,-99.9,29.79,South,180,9.0,10.0,-999,-99.99,,,-99.99,,2013-09-22 03:34:00,
2013-09-21 20:45:00,58.0,-99.9,29.79,South,180,9.0,10.0,-999,-99.99,,,-99.99,,2013-09-22 03:45:00,
2013-09-21 20:54:00,58.0,-99.9,29.79,South,180,9.0,10.0,-999,-99.99,,,-99.99,,2013-09-22 03:54:00,
2013-09-21 21:00:00,58.0,-99.9,29.80,South,170,8.0,9.0,-999,-99.99,,,-99.99,,2013-09-22 04:00:00,
2013-09-21 21:24:00,58.0,-99.9,29.80,South,170,8.0,9.0,-999,-99.99,,,-99.99,,2013-09-22 04:24:00,
2013-09-21 21:33:00,58.0,-99.9,29.80,South,170,8.0,9.0,-999,-99.99,,,-99.99,,2013-09-22 04:33:00,
2013-09-21 21:44:00,58.0,-99.9,29.80,South,170,8.0,9.0,-999,-99.99,,,-99.99,,2013-09-22 04:44:00,
2013-09-21 21:54:00,58.0,-99.9,29.80,South,170,8.0,9.0,-999,-99.99,,,-99.99,,2013-09-22 04:54:00,
2013-09-21 22:00:00,58.0,-99.9,29.80,South,180,10.0,13.0,-999,-99.99,,,-99.99,,2013-09-22 05:00:00,
2013-09-21 22:23:00,58.0,-99.9,29.80,South,180,10.0,13.0,-999,-99.99,,,-99.99,,2013-09-22 05:23:00,
2013-09-21 22:35:00,58.0,-99.9,29.80,South,180,10.0,13.0,-999,-99.99,,,-99.99,,2013-09-22 05:35:00,
2013-09-21 22:43:00,58.0,-99.9,29.80,South,180,10.0,13.0,-999,-99.99,,,-99.99,,2013-09-22 05:43:00,
2013-09-21 22:53:00,58.0,-99.9,29.80,South,180,10.0,13.0,-999,-99.99,,,-99.99,,2013-09-22 05:53:00,
2013-09-21 23:00:00,58.0,-99.9,29.81,South,190,13.0,16.0,-999,-99.99,,,-99.99,,2013-09-22 06:00:00,
2013-09-21 23:22:00,58.0,-99.9,29.81,South,190,13.0,16.0,-999,-99.99,,,-99.99,,2013-09-22 06:22:00,
2013-09-21 23:32:00,58.0,-99.9,29.81,South,190,13.0,16.0,-999,-99.99,,,-99.99,,2013-09-22 06:32:00,
2013-09-21 23:42:00,58.0,-99.9,29.81,South,190,13.0,16.0,-999,-99.99,,,-99.99,,2013-09-22 06:42:00,
2013-09-21 23:52:00,58.0,-99.9,29.81,South,190,13.0,16.0,-999,-99.99,,,-99.99,,2013-09-22 06:52:00,